Dubuque, IA

12:04 AM CDT on September 22, 2017 (GMT -0500)
Dubuque Regional

Weather History for KDBQ - February, 2013

Change the Weather History Date:

Sunday, February 3, 2013

  Actual Average Record
Temperature  
Mean Temperature 16 °F 20 °F  
Max Temperature 20 °F 28 °F 51 °F (1928)
Min Temperature 11 °F 13 °F -27 °F (1996)
Degree Days  
Heating Degree Days 49 45  
Month to date heating degree days 166 135  
Since 1 July heating degree days 4215 4372  
Cooling Degree Days 0 0  
Month to date cooling degree days 0 0  
Year to date cooling degree days 0 0  
Moisture  
Dew Point 11 °F    
Average Humidity 82    
Maximum Humidity 96    
Minimum Humidity 67    
Precipitation  
Precipitation 0.07 in 0.05 in 0.50 in (1936)
Month to date precipitation 0.19 0.13  
Year to date precipitation 1.93 1.30  
Snow  
Snow 0.80 in 0.40 in - ()
Month to date snowfall 2.8 1.1  
Since 1 July snowfall 28.6 25.7  
Snow Depth 6.00 in    
Sea Level Pressure  
Sea Level Pressure 30.01 in    
Wind  
Wind Speed 11 mph (WSW)    
Max Wind Speed 24 mph    
Max Gust Speed 29 mph    
Visibility 6 miles    
Events Rain , Snow    
T = Trace of Precipitation, MM = Missing Value Source: NWS Daily Summary

Daily Weather History Graph

Daily Weather History Graph

Search for Another Location

Airport or City:

Trip Planner

Search our weather history database for the weather conditions in past years. The results will help you decide how hot, cold, wet, or windy it might be!

Date:

Astronomy

Feb. 03, 2013 Rise Set
Actual Time 7:14 AM CST 5:19 PM CST
Civil Twilight 6:44 AM CST 5:49 PM CST
Nautical Twilight 6:10 AM CST 6:23 PM CST
Astronomical Twilight 5:38 AM CST 6:55 PM CST
Moon 12:42 AM CST (2/3) 10:56 AM CST (2/3)
Length of Visible Light 11h 05m
Length of Day
10h 05m
Waning Gibbous, 48% of the Moon is Illuminated
Feb 3
Waning Gibbous
Feb 10
New
Feb 17
First Quarter
Feb 25
Full
Mar 4
Last Quarter

Hourly Weather History & Observations

Time (CST) Temp. Windchill Dew Point Humidity Pressure Visibility Wind Dir Wind Speed Gust Speed Precip Events Conditions
12:13 AM 10.4 °F -1.5 °F 8.6 °F 92% 29.96 in 5.0 mi SSW 8.1 mph - N/A   Overcast
12:53 AM 10.9 °F 0.2 °F 9.0 °F 92% 30.01 in 4.0 mi South 6.9 mph - 0.01 in   Overcast
1:53 AM 12.0 °F 1.5 °F 9.0 °F 88% 29.99 in 8.0 mi South 6.9 mph - N/A   Overcast
2:24 AM 12.2 °F 1.7 °F 10.4 °F 92% 29.92 in 6.0 mi South 6.9 mph - N/A   Overcast
2:53 AM 12.9 °F 1.6 °F 10.9 °F 92% 29.98 in 3.0 mi SSW 8.1 mph - N/A   Overcast
3:12 AM 12.2 °F 1.7 °F 10.4 °F 92% 29.91 in 2.5 mi SSW 6.9 mph - N/A   Overcast
3:21 AM 12.2 °F 1.7 °F 10.4 °F 92% 29.91 in 2.5 mi SSW 6.9 mph - N/A   Overcast
3:41 AM 12.2 °F 0.7 °F 10.4 °F 92% 29.91 in 2.5 mi SW 8.1 mph - N/A   Overcast
3:53 AM 12.9 °F 2.6 °F 10.9 °F 92% 29.98 in 2.5 mi SW 6.9 mph - N/A   Overcast
4:35 AM 14.0 °F 2.0 °F 12.2 °F 93% 29.93 in 1.8 mi WSW 9.2 mph - N/A   Overcast
4:53 AM 14.0 °F 0.5 °F 12.9 °F 95% 30.00 in 1.5 mi West 11.5 mph - N/A   Overcast
5:11 AM 15.8 °F 3.4 °F 12.2 °F 86% 29.94 in 2.0 mi West 10.4 mph - N/A   Overcast
5:37 AM 15.8 °F 0.9 °F 14.0 °F 93% 29.95 in 2.5 mi WNW 15.0 mph - 0.01 in   Overcast
5:44 AM 15.8 °F -0.2 °F 12.2 °F 86% 29.95 in 3.0 mi NW 17.3 mph - 0.01 in   Overcast
5:53 AM 16.0 °F 1.1 °F 12.9 °F 88% 30.01 in 4.0 mi NW 15.0 mph - 0.01 in Snow Light Snow
6:00 AM 15.8 °F -0.2 °F 12.2 °F 86% 29.95 in 4.0 mi NW 17.3 mph - 0.00 in Rain Light Freezing Rain
6:07 AM 15.8 °F -0.2 °F 12.2 °F 86% 29.95 in 5.0 mi NW 17.3 mph - 0.00 in   Overcast
6:16 AM 15.8 °F 0.9 °F 12.2 °F 86% 29.95 in 4.0 mi NW 15.0 mph - 0.00 in Snow Light Snow
6:53 AM 16.0 °F 2.3 °F 12.9 °F 88% 30.03 in 6.0 mi NW 12.7 mph - 0.00 in   Overcast
7:53 AM 15.1 °F -1.6 °F 9.0 °F 77% 30.06 in 7.0 mi NW 18.4 mph - N/A   Overcast
8:53 AM 12.9 °F -2.8 °F 7.0 °F 77% 30.08 in 10.0 mi NW 15.0 mph - N/A   Partly Cloudy
9:53 AM 14.0 °F -1.4 °F 6.1 °F 71% 30.09 in 10.0 mi WNW 15.0 mph - N/A   Clear
10:53 AM 14.0 °F -1.4 °F 7.0 °F 74% 30.11 in 10.0 mi WNW 15.0 mph - N/A   Clear
11:53 AM 14.0 °F -2.5 °F 6.1 °F 71% 30.12 in 10.0 mi West 17.3 mph - N/A   Clear
12:53 PM 15.1 °F -1.6 °F 7.0 °F 70% 30.11 in 10.0 mi West 18.4 mph 23.0 mph N/A   Mostly Cloudy
1:53 PM 16.0 °F 1.1 °F 8.1 °F 71% 30.10 in 10.0 mi West 15.0 mph 25.3 mph N/A   Overcast
2:53 PM 17.1 °F 2.0 °F 9.0 °F 71% 30.08 in 10.0 mi West 16.1 mph - N/A   Overcast
3:53 PM 17.1 °F 3.0 °F 9.0 °F 71% 30.07 in 10.0 mi West 13.8 mph - N/A   Overcast
4:53 PM 18.0 °F 6.9 °F 10.0 °F 71% 30.05 in 10.0 mi West 9.2 mph - N/A   Overcast
5:53 PM 18.0 °F 7.7 °F 10.9 °F 74% 30.05 in 10.0 mi WSW 8.1 mph - N/A   Overcast
6:53 PM 18.0 °F 9.8 °F 12.0 °F 78% 30.05 in 10.0 mi WSW 5.8 mph - N/A   Overcast
7:53 PM 19.0 °F 12.3 °F 12.9 °F 77% 30.05 in 10.0 mi SW 4.6 mph - N/A   Overcast
8:53 PM 19.0 °F 12.3 °F 14.0 °F 81% 30.05 in 10.0 mi South 4.6 mph - N/A   Overcast
9:53 PM 19.0 °F 12.3 °F 14.0 °F 81% 30.04 in 10.0 mi ESE 4.6 mph - N/A   Overcast
10:21 PM 19.4 °F 10.4 °F 15.8 °F 86% 29.96 in 2.5 mi ESE 6.9 mph - 0.00 in Snow Light Snow
10:31 PM 19.4 °F 10.4 °F 15.8 °F 86% 29.96 in 1.2 mi ESE 6.9 mph - 0.00 in Snow Light Snow
10:53 PM 19.0 °F 9.0 °F 15.1 °F 85% 30.01 in 1.0 mi SE 8.1 mph - 0.01 in Snow Light Snow
11:14 PM 19.4 °F 9.5 °F 15.8 °F 86% 29.93 in 1.0 mi SE 8.1 mph - 0.01 in Snow Light Snow
11:53 PM 19.0 °F 6.8 °F 16.0 °F 88% 29.96 in 1.2 mi ESE 11.5 mph - 0.03 in Snow Light Snow